Погода в Новосельцеве

Россия / Томская область     58°38′03″N   81°41′36″E
темп.,
°C
ветер,
м/с
пор.,
м/с
влажн.,
%
обл.,
%
осадки,
мм/ч
давл.,
гПа
погр.,
м
31 июля, сб
сб3101:00+9зюз22938 0.4 101213
04:00+10ююв3385100 0.0 101135
07:00+11ююв4897100 1.5 1011253
10:00+13юв51296100 2.1 1010373
13:00+13ююв51292100 2.6 1009397
16:00+15ю51590100 2.2 1008802
19:00+14ююз81593100 5.8 1008792
22:00+13юз41096100 0.4 1009397
1 августа, вс
вс101:00+14ююз259889 0.4 1010169
04:00+14юз2297100 0.1 101057
07:00+14зсз1196100 0.1 101137
10:00+16сз128694 0.1 1011215
13:00+18ссз217194 0.3 1012826
16:00+19зсз116473 0.0 10121067
19:00+19с116291 0.1 1012931
22:00+15св2282100 0.0 101111
2 августа, пн
пн201:00+12в228940 0.0 101011
04:00+12вюв22875 0.0 100913
07:00+13юв348583 0.0 100982
10:00+18юв4570100 0.0 1008429
13:00+22юв4555100 0.0 10071422
16:00+24вюв4448100 0.0 10061570
19:00+20юз3369100 0.0 100679
22:00+17ссз2293100 0.4 100636
3 августа, вт
вт301:00+16с1197100 3.8 100612
04:00+15всв1197100 3.9 100622
07:00+15ссв2296100 4.5 100634
10:00+16всв0096100 1.4 100674
13:00+16всв1197100 5.3 1007109
16:00+18сз229092 1.9 1007346
19:00+19сз338097 2.0 1007596
22:00+15сз459343 0.5 100771
4 августа, ср
ср401:00+14ссз459649 0.5 100771
04:00+14ссв229496 0.0 100819
07:00+14с379378 0.0 1008153
10:00+19с457322 0.0 1009452
13:00+23ссз55577 0.0 10091170
16:00+24ссз56525 0.0 10091545
19:00+21ссз587051 0.0 1009394
22:00+17сз48858 0.0 1009107